User: anonymous   Login
Location: Caltech
(34.1382°N, 118.1253°W)
Time: 13:55:50
(UTC-08:00)
Language:

Cosmos 2084 - Orbit

View from above orbital plane
View from above orbital plane
View from above satellite
View from above satellite

Ground track
Ground track

The orbit data is extracted from the following two-line orbital elements,

1 20663U 90055A   17328.51569873  .00000169  00000-0  31988-4 0  9990
2 20663  62.7934  52.9552 0136943 105.7286 255.8961 14.91726689483726
Epoch (UTC): 24 November 2017 12:22:36
Eccentricity: 0.0136943
inclination: 62.7934°
perigee height: 497 km
apogee height: 688 km
right ascension of ascending node: 52.9552°
argument of perigee: 105.7286°
revolutions per day: 14.91726689
mean anomaly at epoch: 255.8961°
orbit number at epoch: 48372

The dashed part of the orbit path shows where the satellite is in the earth's shadow,  

DLR